Stations météo

Publicité
Alanya, Turquie (17310): Température de l'air & dewpoint: 10.12.2018 15:00:00 - 16.12.2018 15:00:00 (EET)Alanya, Turquie (17310): Vitesse du vent: 10.12.2018 15:00:00 - 16.12.2018 15:00:00 (EET)Alanya, Turquie (17310): Direction du vent: 10.12.2018 15:00:00 - 16.12.2018 15:00:00 (EET)Alanya, Turquie (17310): reduced air pressure: 10.12.2018 15:00:00 - 16.12.2018 15:00:00 (EET)Alanya, Turquie (17310): visibility: 10.12.2018 15:00:00 - 16.12.2018 15:00:00 (EET)
Date & Time tt [°C] td [°C] ff [km/h] ff [knt] dd ppp [hPa] vv [km]
16.12.2018 15:00:00 - - - - - - -
16.12.2018 14:00:00 17,1 9,5 2 1 N 1014,5 20
16.12.2018 13:00:00 18,6 8,2 2 1 ENE 1014,8 20
16.12.2018 12:00:00 19,1 7,1 5 3 ESE 1015,4 20
16.12.2018 11:00:00 18,2 7,3 5 3 ENE 1016,3 20
16.12.2018 10:00:00 16,1 9,1 2 1 ENE 1017,2 20
16.12.2018 09:00:00 15,0 6,8 2 1 ENE 1017,4 20
16.12.2018 08:00:00 14,0 6,1 2 1 ENE 1016,9 20
16.12.2018 07:00:00 14,5 5,0 5 3 ENE 1017,0 20
16.12.2018 06:00:00 13,7 5,6 4 2 ENE 1017,1 20
16.12.2018 05:00:00 14,6 5,1 4 2 NE 1017,3 20
16.12.2018 04:00:00 14,0 5,9 4 2 NE 1017,5 20
16.12.2018 03:00:00 13,7 7,9 2 1 NE 1018,0 20
16.12.2018 02:00:00 14,4 8,4 4 2 NE 1018,8 20
16.12.2018 01:00:00 14,7 9,1 4 2 E 1019,2 20
16.12.2018 00:00:00 14,0 8,8 2 1 ENE 1019,8 20
15.12.2018 23:00:00 14,5 9,5 2 1 N 1020,2 20
15.12.2018 22:00:00 15,0 10,0 2 1 ENE 1020,5 20
15.12.2018 21:00:00 15,4 10,4 4 2 E 1020,7 20
15.12.2018 20:00:00 15,3 10,9 4 2 ENE 1021,0 20
15.12.2018 19:00:00 15,9 11,1 4 2 ENE 1021,2 20
15.12.2018 18:00:00 15,9 11,3 4 2 NE 1021,1 20
15.12.2018 17:00:00 16,4 11,6 2 1 NNE 1021,0 20
15.12.2018 16:00:00 17,7 11,8 2 1 NW 1021,5 20
15.12.2018 15:00:00 19,4 12,0 2 1 SW 1021,4 20
15.12.2018 14:00:00 19,8 12,1 4 2 SSW 1021,8 20
15.12.2018 13:00:00 21,2 12,6 5 3 S 1022,3 20
15.12.2018 12:00:00 21,2 10,3 5 3 S 1023,0 20
15.12.2018 11:00:00 19,8 13,3 2 1 E 1023,7 20
15.12.2018 10:00:00 15,7 10,9 2 1 NE 1024,5 20
15.12.2018 09:00:00 15,6 10,2 4 2 ENE 1024,3 20
15.12.2018 08:00:00 13,9 9,9 4 2 E 1024,2 20
15.12.2018 07:00:00 13,8 9,8 4 2 ESE 1023,9 20
15.12.2018 06:00:00 14,3 10,1 4 2 E 1023,5 20
15.12.2018 05:00:00 14,7 10,1 5 3 ENE 1023,7 20
15.12.2018 04:00:00 13,8 9,8 8 4 NE 1023,9 20
15.12.2018 03:00:00 13,6 9,4 2 1 NE 1024,2 20
15.12.2018 02:00:00 13,6 9,1 4 2 E 1024,2 20
15.12.2018 01:00:00 12,8 9,4 4 2 NE 1024,3 20
15.12.2018 00:00:00 13,4 9,8 5 3 ENE 1024,3 20
14.12.2018 23:00:00 13,4 10,2 4 2 E 1024,7 20
14.12.2018 22:00:00 13,8 10,0 4 2 E 1024,9 20
14.12.2018 21:00:00 13,7 10,3 4 2 ENE 1024,9 7
14.12.2018 20:00:00 13,5 9,9 5 3 E 1024,7 20
14.12.2018 19:00:00 13,4 10,5 4 2 E 1024,7 20
14.12.2018 18:00:00 13,4 10,5 4 2 E 1024,1 20
14.12.2018 17:00:00 14,0 11,5 4 2 ESE 1024,1 20
14.12.2018 16:00:00 13,9 11,9 5 3 NE 1023,8 20
14.12.2018 15:00:00 14,3 11,4 4 2 ENE 1023,7 10
14.12.2018 14:00:00 15,6 10,8 4 2 SE 1023,3 10
14.12.2018 13:00:00 16,0 9,7 4 2 ENE 1023,4 20
14.12.2018 12:00:00 17,0 10,9 8 4 ENE 1023,4 20
14.12.2018 11:00:00 14,9 10,1 5 3 ENE 1024,1 20
14.12.2018 10:00:00 13,1 10,1 5 3 ENE 1024,4 20
14.12.2018 09:00:00 13,2 7,7 4 2 SE 1024,3 15
14.12.2018 08:00:00 13,0 6,1 5 3 ESE 1023,4 20
14.12.2018 07:00:00 12,1 5,0 4 2 E 1023,4 20
14.12.2018 06:00:00 11,7 4,0 9 5 ENE 1023,3 20
14.12.2018 05:00:00 11,7 3,5 11 6 ENE 1023,5 15
14.12.2018 04:00:00 11,9 4,6 5 3 NE 1023,6 15
14.12.2018 03:00:00 12,2 -1,1 2 1 NE 1023,9 20
14.12.2018 02:00:00 12,1 -3,4 2 1 E 1023,4 20
14.12.2018 01:00:00 11,4 1,0 4 2 E 1023,4 20
14.12.2018 00:00:00 11,7 1,8 5 3 E 1024,0 20
13.12.2018 23:00:00 11,4 0,4 5 3 E 1024,2 20
13.12.2018 22:00:00 11,4 -0,4 4 2 E 1023,9 20
13.12.2018 21:00:00 11,1 -2,8 4 2 E 1024,1 20
13.12.2018 20:00:00 11,5 -4,3 4 2 ENE 1023,8 20
13.12.2018 19:00:00 10,9 -2,9 2 1 NE 1023,6 20
13.12.2018 18:00:00 11,3 -3,7 4 2 ENE 1023,0 20
13.12.2018 17:00:00 12,3 -3,2 2 1 NE 1022,7 20
13.12.2018 16:00:00 14,4 -4,0 2 1 WSW 1022,8 20
13.12.2018 15:00:00 15,2 -3,3 5 3 W 1022,6 20
13.12.2018 14:00:00 17,2 -4,1 4 2 WSW 1021,9 20
13.12.2018 13:00:00 17,7 -0,2 2 1 SSW 1022,3 20
13.12.2018 12:00:00 17,1 -0,2 2 1 SSW 1022,5 20
13.12.2018 11:00:00 17,4 0,0 2 1 SE 1022,7 20
13.12.2018 10:00:00 15,8 -3,2 2 1 ENE 1022,9 20
13.12.2018 09:00:00 13,2 0,4 4 2 ENE 1022,4 20
13.12.2018 08:00:00 8,4 -1,7 4 2 ENE 1021,6 20
13.12.2018 07:00:00 7,8 -3,7 4 2 ENE 1021,0 20
13.12.2018 06:00:00 7,8 -3,4 2 1 ENE 1020,2 20
13.12.2018 05:00:00 7,6 -1,9 0 0 N 1019,9 20
13.12.2018 04:00:00 8,3 -1,2 0 0 N 1019,3 20
13.12.2018 03:00:00 8,7 -2,3 2 1 NE 1018,9 20
13.12.2018 02:00:00 8,9 -2,7 4 2 ENE 1018,5 20
13.12.2018 01:00:00 9,4 -2,0 4 2 NE 1017,7 20
13.12.2018 00:00:00 10,2 0,4 2 1 NW 1017,3 20
12.12.2018 23:00:00 11,9 0,2 4 2 W 1017,3 20
12.12.2018 22:00:00 12,5 2,3 5 3 W 1016,5 20
12.12.2018 21:00:00 12,2 0,5 4 2 NNW 1016,0 20
12.12.2018 20:00:00 12,6 -0,4 2 1 E 1015,3 20
12.12.2018 19:00:00 13,6 -2,9 5 3 NW 1014,7 20
12.12.2018 18:00:00 13,8 -1,5 15 8 N 1013,7 20
12.12.2018 17:00:00 13,6 2,1 5 3 NW 1013,3 20
12.12.2018 16:00:00 15,8 3,8 5 3 W 1012,7 20
12.12.2018 15:00:00 16,7 4,9 9 5 W 1012,0 20
12.12.2018 14:00:00 16,9 5,8 5 3 NW 1011,8 20
12.12.2018 13:00:00 16,0 9,9 9 5 W 1011,6 20
12.12.2018 12:00:00 17,6 11,2 4 2 S 1011,3 20
12.12.2018 11:00:00 13,5 10,5 4 2 E 1011,5 20
12.12.2018 10:00:00 13,9 10,3 5 3 E 1011,4 7
12.12.2018 09:00:00 13,6 10,2 4 2 E 1011,0 20
12.12.2018 08:00:00 13,7 10,0 8 4 WSW 1010,4 10
12.12.2018 07:00:00 13,7 10,6 4 2 NNW 1009,5 20
12.12.2018 06:00:00 16,3 11,3 13 7 SSW 1009,2 20
12.12.2018 05:00:00 16,2 10,5 13 7 SW 1009,2 20
12.12.2018 04:00:00 12,9 10,2 2 1 N 1010,0 20
12.12.2018 03:00:00 12,4 10,4 2 1 ENE 1010,5 10
12.12.2018 02:00:00 13,0 11,7 4 2 N 1009,7 8
12.12.2018 01:00:00 13,1 11,6 4 2 N 1009,5 10
12.12.2018 00:00:00 13,4 12,1 2 1 NNW 1010,2 20
11.12.2018 23:00:00 13,6 12,1 2 1 ENE 1010,7 20
11.12.2018 22:00:00 13,8 11,6 8 4 N 1009,9 8
11.12.2018 21:00:00 13,1 10,8 5 3 ENE 1010,0 15
11.12.2018 20:00:00 13,1 11,4 4 2 SE 1010,7 10
11.12.2018 19:00:00 12,7 10,7 5 3 ENE 1011,4 10
11.12.2018 18:00:00 12,5 10,3 5 3 E 1012,4 10
11.12.2018 17:00:00 14,3 8,5 5 3 ENE 1012,0 15
11.12.2018 16:00:00 17,1 9,5 8 4 SW 1012,5 15
11.12.2018 15:00:00 17,5 8,1 4 2 SW 1012,5 20
11.12.2018 14:00:00 17,7 7,7 5 3 SW 1012,3 20
11.12.2018 13:00:00 18,2 9,0 15 8 SSW 1012,2 20
11.12.2018 12:00:00 19,2 9,1 13 7 SW 1012,0 20
11.12.2018 11:00:00 19,7 8,0 5 3 SSW 1011,7 20
11.12.2018 10:00:00 18,2 8,7 15 8 SSW 1011,6 20
11.12.2018 09:00:00 18,5 9,0 9 5 SW 1010,9 20
11.12.2018 08:00:00 17,3 10,0 9 5 SSW 1009,9 20
11.12.2018 07:00:00 14,5 7,1 4 2 NE 1009,1 20
11.12.2018 06:00:00 14,9 7,0 2 1 NNW 1008,4 20
11.12.2018 05:00:00 15,5 9,4 4 2 NW 1007,5 20
11.12.2018 04:00:00 18,1 11,0 11 6 WSW 1006,6 20
11.12.2018 03:00:00 18,1 11,2 13 7 N 1007,0 20
11.12.2018 02:00:00 17,7 11,3 15 8 SSW 1007,0 20
11.12.2018 01:00:00 16,6 13,3 15 8 SSW 1007,5 20
11.12.2018 00:00:00 15,3 13,6 16 9 W 1007,6 20
10.12.2018 23:00:00 19,1 15,4 29 16 S 1007,5 7
10.12.2018 22:00:00 19,0 14,5 22 12 S 1008,5 20
10.12.2018 21:00:00 17,2 12,1 9 5 E 1008,4 20
10.12.2018 20:00:00 15,9 11,5 8 4 ENE 1009,2 20
10.12.2018 19:00:00 15,0 12,6 9 5 ENE 1010,4 20
10.12.2018 18:00:00 15,1 12,7 4 2 NNE 1011,1 10
10.12.2018 17:00:00 16,7 13,0 11 6 S 1011,6 10
10.12.2018 16:00:00 18,1 10,5 9 5 SSE 1011,3 20
10.12.2018 15:00:00 19,2 10,5 4 2 SE 1011,6 20

tt = Température de l'air
td = dewpoint
ff = Vitesse du vent
dd = Direction du vent
ppp = reduced air pressure
vv = visibility

stations d'obs. à proximité